Location: Bullfrog
(37.5121°N, 110.7330°W)
Time: 11:44:51
(UTC-07:00)

Hubble Space Telescope - Pass Details

Date: 29 January 2026
Orbit: 478 x 480 km, 28.5° (Epoch: 5 February)

Event Time Altitude Azimuth Distance (km) Brightness Sun altitude
Rises 20:05:15 0° 252° (WSW) 2,510 5.3 -28.1°
Reaches altitude 10° 20:08:38 10° 219° (SW) 1,632 3.7 -28.8°
Enters shadow 20:09:09 11° 212° (SSW) 1,566 3.5 -28.9°
